Volver al catálogo

STARLINK-32734

ActivoComunicacionesVLEO
NORAD 62476·PAYLOAD·🇺🇸 United States

Lanzado Dec 31, 2024 desde Cape Canaveral Space Force Station

Loading…

Próximos Pases (próximas 24 horas)

TLE

ActualizadoSource: CelesTrak SupGP

Época: Sep 15, 2026, 02:15 UTC

1 62476C 24254Q   26258.09423611 -.00021705  00000+0 -78639-3 0  2581
2 62476  43.0032  26.8596 0001439 262.4479 262.9499 15.27579497    14

Sigue STARLINK-32734 en tiempo real con AllMySat

Download on the App Store